Weather in Krenevo

Russia / Kostroma Oblast     58°33′16″N   41°20′58″E
temp.,
°C
wind,
m/s
gust,
m/s
humid.,
%
clouds,
%
prec.,
mm/h
press.,
hPa
HPBL,
m
17 may, tue
tue1700:00+5nnw399776 0.0 1000191
03:00+8n5109499 0.6 1000389
06:00+8nne4109696 0.3 1000412
09:00+10nne5886100 0.3 1001613
12:00+10nne7979100 0.4 1002855
15:00+9nne71180100 0.4 1004729
18:00+8nne6118296 0.0 1006817
21:00+8nne5117494 0.0 1007622
18 may, wed
wed1800:00+4nne5128593 0.0 1008453
03:00+4n497698 0.0 1009510
06:00+4n49767 0.0 1010333
09:00+9n576251 0.0 10101408
12:00+11nnw5651100 0.1 10101936
15:00+7nnw5780100 0.3 1011971
18:00+7nnw587797 0.6 10111147
21:00+3wnw379266 0.7 1012134
19 may, thu
thu1900:00+3wnw379188 0.0 1011179
03:00+2wnw379773 0.0 1011204
06:00+3nnw498933 0.0 1011498
09:00+4n567994 0.1 1012810
12:00+5n476438 0.1 10141241
15:00+9nw6848100 0.1 10132191
18:00+7nnw696097 0.1 10141413
21:00+3nnw4109398 0.3 1015780
20 may, fri
fri2000:00+2nnw511885 0.3 1016498
03:00−1nnw410945 0.3 1017287
06:00+1nnw48855 0.0 1018323
09:00+7n45607 0.0 10181164
12:00+10nnw3443100 0.0 10182189
15:00+11nnw343899 0.0 10162162
18:00+10nw345039 0.0 1016957
21:00+5nnw33645 0.0 101527
21 may, sat
sat2100:00+3nnw337195 0.0 101539
03:00+1ne22835 0.0 101427
06:00+4ne356942 0.0 1014182
09:00+8ne34495 0.0 10131055
12:00+10nne344086 0.0 10122149
15:00+12nne343695 0.0 10112383
18:00+11ne344858 0.0 10101216
21:00+5ne346316 0.0 101141